Regional Weather Roundup
Issued by NWS

Home | Current Version | Previous Version | Text Only | Print | Product List | Glossary On
Versions: 1 2 3 4 5 6 7 8 9 10 11 12 13 14 15 16 17 18 19 20 21 22 23 24 25 26 27 28 29 30 31 32 33 34 35 36 37 38 39 40 41 42 43 44 45 46 47 48 49 50
000
ASUS44 KFWD 171803
RWRTX
NORTH TEXAS HOURLY WEATHER ROUNDUP
NATIONAL WEATHER SERVICE FORT WORTH TX
100 PM CDT WED SEP 17 2014

NOTE: "FAIR" INDICATES FEW OR NO CLOUDS BELOW 12,000 FEET WITH NO
SIGNIFICANT WEATHER AND/OR OBSTRUCTIONS TO VISIBILITY.

TXZ118-119-171900-
DALLAS/FORT WORTH METROPLEX

CITY           SKY/WX    TMP DP  RH WIND       PRES   REMARKS
DFW AIRPORT    PTSUNNY   90  69  50 VRB6      29.94F HX  94
6HR MIN TEMP:  73; 6HR MAX TEMP:  90;

DALLAS LOVE    PTSUNNY   90  69  50 VRB3      29.94F HX  94
6HR MIN TEMP:  76; 6HR MAX TEMP:  90;

FTW MEACHAM    FAIR      89  68  49 E5        29.94F HX  93
6HR MIN TEMP:  74; 6HR MAX TEMP:  89;

DAL-EXECUTIVE  FAIR      92  68  45 S6        29.94F HX  96
6HR MIN TEMP:  73; 6HR MAX TEMP:  92;

FTW-ALLIANCE   PTSUNNY   90  65  43 VRB5      29.94F HX  92
6HR MIN TEMP:  70; 6HR MAX TEMP:  90;

FTW-NAS-JRB    PTSUNNY   93  68  43 E8        29.98F HX  97
FTW-SPINKS     MOSUNNY   91  66  43 CALM      29.96F HX  94
ARLINGTON      FAIR      89  68  49 VRB3      29.95F HX  93
6HR MIN TEMP:  71; 6HR MAX TEMP:  90;

GRAND PRAIRIE  SUNNY     90  66  45 MISG      29.96F HX  92
MESQUITE       MOSUNNY   88  68  51 SW5       29.95F HX  91
LANCASTER      FAIR      88  68  51 S5        29.95F HX  92
6HR MIN TEMP:  68; 6HR MAX TEMP:  88;

$$

TXZ091>094-102>105-117-120-121-131>134-171900-
NORTH CENTRAL TEXAS

CITY           SKY/WX    TMP DP  RH WIND       PRES   REMARKS
SHRMAN/DENISON FAIR      88  69  54 S8        29.97F HX  92
6HR MIN TEMP:  73; 6HR MAX TEMP:  88;

GAINESVILLE    FAIR      87  70  57 CALM      29.97F HX  92
6HR MIN TEMP:  70; 6HR MAX TEMP:  87;

BOWIE          FAIR      87  70  57 CALM      29.96F HX  91
6HR MIN TEMP:  69; 6HR MAX TEMP:  88;

BRIDGEPORT     FAIR      89  63  40 SW3       29.96F HX  90
6HR MIN TEMP:  71; 6HR MAX TEMP:  89;

DECATUR        FAIR      87  67  51 W5        29.96F HX  90
6HR MIN TEMP:  73; 6HR MAX TEMP:  88;

DENTON         FAIR      89  66  46 VRB3      29.94F HX  91
6HR MIN TEMP:  71; 6HR MAX TEMP:  90; 6HR PCP: TRACE;

MCKINNEY       FAIR      89  70  53 S7        29.95F HX  94
6HR MIN TEMP:  71; 6HR MAX TEMP:  90;

GREENVILLE     FAIR      88  68  51 CALM      29.96F HX  91
ROCKWALL       FAIR      87  71  60 S6        29.94F HX  92
6HR MIN TEMP:  72; 6HR MAX TEMP:  88;

TERRELL        FAIR      90  69  50 VRB3      29.95F HX  94
6HR MIN TEMP:  72; 6HR MAX TEMP:  91;

WAXAHACHIE     FAIR      87  67  51 CALM      29.96F HX  90
6HR MIN TEMP:  70; 6HR MAX TEMP:  88;

CLEBURNE       FAIR      86  73  66 SE6       29.97F HX  93
GRANBURY       FAIR      90  66  45 CALM      29.96F HX  92
6HR MIN TEMP:  73; 6HR MAX TEMP:  90;

$$

TXZ083>090-098>101-113>116-127>130-139>142-154-155-171900-
WESTERN NORTH TEXAS

CITY           SKY/WX    TMP DP  RH WIND       PRES   REMARKS
WICHITA FALLS  FAIR      86  69  56 W7        29.94F HX  90
6HR MIN TEMP:  72; 6HR MAX TEMP:  87;

ABILENE        FAIR      89  65  44 VRB5      29.98F HX  91
6HR MIN TEMP:  73; 6HR MAX TEMP:  91; 6HR PCP: TRACE;

ABILENE-DYESS  PTSUNNY   87  67  51 N7        29.98F
6HR MIN TEMP:  72; 6HR MAX TEMP:  87;

BRECKENRIDGE   FAIR      91  63  39 CALM      29.95F HX  91
6HR MIN TEMP:  75; 6HR MAX TEMP:  91;

MINERAL WELLS  FAIR      88  67  49 VRB5      29.94F HX  91
6HR MIN TEMP:  73; 6HR MAX TEMP:  89;

STEPHENVILLE   FAIR      87  68  53 N3        30.00F HX  90
6HR MIN TEMP:  73; 6HR MAX TEMP:  87;

COMANCHE       FAIR      90  66  45 SE3       29.97F HX  92
6HR MIN TEMP:  71; 6HR MAX TEMP:  90;

BROWNWOOD      FAIR      90  66  45 S8        29.97F HX  92
$$

TXZ143>147-156>162-174-175-171900-
CENTRAL TEXAS

CITY           SKY/WX    TMP DP  RH WIND       PRES   REMARKS
WACO           PTSUNNY   87  72  60 VRB3      29.96F HX  93
6HR MIN TEMP:  74; 6HR MAX TEMP:  87;

WACO-TSTC      PTSUNNY   84  72  65 CALM      29.95F
WACO-MCGREGOR  FAIR      88  70  55 S7        29.96F HX  92
6HR MIN TEMP:  73; 6HR MAX TEMP:  88;

HILLSBORO      FAIR      85  71  62 S5        29.96F HX  90
6HR MIN TEMP:  72; 6HR MAX TEMP:  85;

CORSICANA      PTSUNNY   86  71  60 CALM      29.97F HX  91
6HR MIN TEMP:  73; 6HR MAX TEMP:  86;

MEXIA          FAIR      83  73  69 S3        29.96F
6HR MIN TEMP:  72; 6HR MAX TEMP:  83;

HEARNE           N/A     87  73  61 S6        29.95F HX  95
6HR MIN TEMP:  75; 6HR MAX TEMP:  87;

CAMERON        FAIR      88  72  60 SW8       29.94F HX  95
6HR MIN TEMP:  75; 6HR MAX TEMP:  88;

TEMPLE         PTSUNNY   86  68  54 SW6       29.95F
6HR MIN TEMP:  73; 6HR MAX TEMP:  88;

KILLEEN        PTSUNNY   90  70  51 CALM      29.96F HX  95
KILLEEN-SKYLRK FAIR      88  70  55 SE5       29.95F HX  92
6HR MIN TEMP:  73; 6HR MAX TEMP:  88;

FORT HOOD      FAIR      89  71  55 CALM      29.96F HX  95
6HR MIN TEMP:  76; 6HR MAX TEMP:  91;

HAMILTON       FAIR      88  67  50 S5        29.99F HX  91
6HR MIN TEMP:  72; 6HR MAX TEMP:  88;

LAMPASAS       FAIR      90  73  57 S3        29.96F HX  97
6HR MIN TEMP:  76; 6HR MAX TEMP:  91;

$$

TXZ095>097-106>112-122>126-135>138-148>153-164>167-171900-
EAST TEXAS

CITY           SKY/WX    TMP DP  RH WIND       PRES   REMARKS
PARIS          FAIR      84  70  61 CALM      29.98F
6HR MIN TEMP:  70; 6HR MAX TEMP:  86;

MOUNT PLEASANT FAIR      88  69  54 CALM      29.97F HX  92
6HR MIN TEMP:  70; 6HR MAX TEMP:  88;

GILMER         FAIR      88  73  62 SE5       29.98F HX  96
TYLER          FAIR      85  71  63 CALM      29.97S HX  90
6HR MIN TEMP:  72; 6HR MAX TEMP:  88;

LONGVIEW       PTSUNNY   89  71  55 VRB5      29.95F HX  95
6HR MIN TEMP:  71; 6HR MAX TEMP:  90;

MARSHALL       FAIR      89  73  60 SE3       29.98F HX  97
6HR MIN TEMP:  71; 6HR MAX TEMP:  89;

ATHENS         FAIR      84  70  61 E3        29.96F
PALESTINE      CLOUDY    83  74  75 SW3       29.98F HX  90
JACKSONVILLE   FAIR      86  71  62 S6        30.00F HX  91
NACOGDOCHES    FAIR      84  72  65 CALM      29.97F
6HR MIN TEMP:  70; 6HR MAX TEMP:  84;

LUFKIN           N/A     85  73  67 S3        29.97F HX  91
6HR MIN TEMP:  74; 6HR MAX TEMP:  86;

$$

SUPPLEMENTAL OBSERVATIONS (CENTRAL)

CITY           SKY/WX    TMP DP  RH WIND       PRES   REMARKS
$$

SUPPLEMENTAL OBSERVATIONS (WEST)

CITY           SKY/WX    TMP DP  RH WIND       PRES   REMARKS
$$

SUPPLEMENTAL OBSERVATIONS (EAST)

CITY           SKY/WX    TMP DP  RH WIND       PRES   REMARKS
$$

SUPPLEMENTAL OBSERVATIONS ARE A COLLECTION OF AUTOMATED INSTRUMENTS
THAT ARE MAINTAINED BY A VARIETY OF FEDERAL AND STATE AGENCIES.
CERTAIN ELEMENTS...SUCH AS HUMIDITY VALUES AND SUSTAINED WIND
SPEEDS...MAY BE APPROXIMATED.



USA.gov is the U.S. government's official web portal to all federal, state and local government web resources and services.